"Pseudo-MPEC" for SWC0541

Created 2024 May 21 20:22:08 UT using Find_Orb

Click here for an explanation of pseudo-MPECs

 
 Astrometry: 
     SWC0541*KB2024 05 04jU8'h*j)Qyb=2ec9fBYAstrometrykqAJk4q5#Yredacted;XKaKY05
     SWC0541 KB2024 05 04kDUvDM_;_J$SclickkF2\q-,bAWRDj2V;heresWf?!u;yH:b%?;pY05
     SWC0541 KB2024 05 04?MR748yforUI+S9=/.k@t0vp%OrjZ_cuU(as6explanationSMEXY05

Station data:
(Y05) SONEAR Wykrota-CEAMIG, Serra da Piedade  (S19.824251 W43.690000)
   Brazil.  Observer C. Jacques. 0.45-m f/2.9 reflector + CMO.

Orbital elements:  SWC0541
   Perihelion 2024 Mar 23.76835 +/- 42.5 TT = 18:26:25 (JD 2460393.26835)
Epoch 2024 May  4.0 TT = JDT 2460434.5   Earth MOID: 0.0644   Ju: 0.0874
M   3.26255272 +/- 22               Ma: 0.0234   Sa: 0.2507      AutoNEOCP
n   0.07912739 +/- 0.18             Peri.  167.51035 +/- 100
a   5.37342857 +/- 8.14             Node    13.44846 +/- 54
e   0.8026360 +/- 0.251             Incl.    2.35546 +/- 1.9
P  12.46                   H 21.53  G  0.15   U 11.6  SR
q 1.06052099 +/- 0.331    Q 9.68633614 +/- 53.4           (J2000 ecliptic)
From 3 observations 2024 May 4 (15.1 min); mean residual 0".23
Residuals in arcseconds: 
240504 Y05  .21+  .09+    240504 Y05  .43-  .19-    240504 Y05  .22+  .09+    

Ephemerides (geocentric):
Date (UTC) HH   RA             Dec           delta  r     elong  mag " sig PA
---- --------  ------------   ------------  ------ ------ -----  --- --------
2024 05 21 20  15 48 30.317   -26 53 35.29  .35327 1.3637 173.3 20.4  69d 105
2024 05 21 21  15 48 31.226   -26 53 31.87  .35362 1.3640 173.3 20.4  69d 105
2024 05 21 22  15 48 32.133   -26 53 28.43  .35398 1.3644 173.3 20.4  69d 105
2024 05 21 23  15 48 33.039   -26 53 24.98  .35433 1.3648 173.3 20.4  69d 105
2024 05 22 00  15 48 33.943   -26 53 21.52  .35468 1.3651 173.3 20.4  69d 105
2024 05 22 01  15 48 34.846   -26 53 18.05  .35504 1.3655 173.3 20.4  69d 105
2024 05 22 02  15 48 35.748   -26 53 14.56  .35539 1.3659 173.3 20.4  69d 105
2024 05 22 03  15 48 36.648   -26 53 11.07  .35575 1.3662 173.3 20.4  70d 105
2024 05 22 04  15 48 37.547   -26 53 07.55  .35610 1.3666 173.3 20.4  70d 105
2024 05 22 05  15 48 38.444   -26 53 04.03  .35646 1.3669 173.3 20.4  70d 105
2024 05 22 06  15 48 39.340   -26 53 00.49  .35681 1.3673 173.3 20.4  70d 105
2024 05 22 07  15 48 40.235   -26 52 56.94  .35717 1.3677 173.3 20.4  70d 105
2024 05 22 08  15 48 41.128   -26 52 53.38  .35752 1.3680 173.3 20.4  70d 105
2024 05 22 09  15 48 42.021   -26 52 49.81  .35788 1.3684 173.3 20.4  70d 105
2024 05 22 10  15 48 42.911   -26 52 46.22  .35823 1.3687 173.3 20.4  70d 105
2024 05 22 11  15 48 43.801   -26 52 42.62  .35859 1.3691 173.3 20.4  70d 105
2024 05 22 12  15 48 44.689   -26 52 39.01  .35895 1.3695 173.3 20.4  70d 105
2024 05 22 13  15 48 45.576   -26 52 35.39  .35930 1.3698 173.3 20.4  70d 105
2024 05 22 14  15 48 46.462   -26 52 31.76  .35966 1.3702 173.3 20.4  70d 105
2024 05 22 15  15 48 47.346   -26 52 28.11  .36002 1.3706 173.3 20.4  70d 105
2024 05 22 16  15 48 48.229   -26 52 24.45  .36037 1.3709 173.3 20.4  70d 105
2024 05 22 17  15 48 49.111   -26 52 20.78  .36073 1.3713 173.3 20.4  70d 105
2024 05 22 18  15 48 49.992   -26 52 17.10  .36109 1.3716 173.3 20.4  70d 105
2024 05 22 19  15 48 50.871   -26 52 13.40  .36145 1.3720 173.2 20.4  70d 105
2024 05 22 20  15 48 51.749   -26 52 09.70  .36180 1.3724 173.2 20.4  70d 105
2024 05 22 21  15 48 52.626   -26 52 05.98  .36216 1.3727 173.2 20.4  70d 105
2024 05 22 22  15 48 53.502   -26 52 02.25  .36252 1.3731 173.2 20.4  70d 105
2024 05 22 23  15 48 54.377   -26 51 58.51  .36288 1.3735 173.2 20.4  70d 105
2024 05 23 00  15 48 55.250   -26 51 54.76  .36324 1.3738 173.2 20.4  70d 105
2024 05 23 01  15 48 56.122   -26 51 50.99  .36360 1.3742 173.2 20.4  70d 105
2024 05 23 02  15 48 56.993   -26 51 47.22  .36396 1.3745 173.2 20.4  70d 105
2024 05 23 03  15 48 57.863   -26 51 43.43  .36432 1.3749 173.2 20.4  70d 105
2024 05 23 04  15 48 58.732   -26 51 39.63  .36468 1.3753 173.2 20.4  70d 105
2024 05 23 05  15 48 59.600   -26 51 35.83  .36504 1.3756 173.2 20.5  70d 105
2024 05 23 06  15 49 00.466   -26 51 32.01  .36540 1.3760 173.2 20.5  70d 105
2024 05 23 07  15 49 01.332   -26 51 28.17  .36576 1.3764 173.2 20.5  70d 105
2024 05 23 08  15 49 02.196   -26 51 24.33  .36612 1.3767 173.2 20.5  70d 105
2024 05 23 09  15 49 03.059   -26 51 20.48  .36648 1.3771 173.2 20.5  70d 105
2024 05 23 10  15 49 03.921   -26 51 16.62  .36684 1.3775 173.2 20.5  70d 105
2024 05 23 11  15 49 04.782   -26 51 12.74  .36720 1.3778 173.2 20.5  70d 105
2024 05 23 12  15 49 05.642   -26 51 08.85  .36757 1.3782 173.2 20.5  70d 105
2024 05 23 13  15 49 06.501   -26 51 04.96  .36793 1.3785 173.2 20.5  70d 105
2024 05 23 14  15 49 07.359   -26 51 01.05  .36829 1.3789 173.1 20.5  70d 105
2024 05 23 15  15 49 08.216   -26 50 57.13  .36865 1.3793 173.1 20.5  70d 105
2024 05 23 16  15 49 09.072   -26 50 53.20  .36901 1.3796 173.1 20.5  70d 105
2024 05 23 17  15 49 09.927   -26 50 49.26  .36938 1.3800 173.1 20.5  70d 105
2024 05 23 18  15 49 10.781   -26 50 45.31  .36974 1.3804 173.1 20.5  70d 105
2024 05 23 19  15 49 11.634   -26 50 41.35  .37010 1.3807 173.1 20.5  70d 105